Flag for Switzerland Weather past 2 weeks in Meyrin, Geneva, Switzerland

46 °F

Passing clouds.

Feels Like: 46 °F
Forecast: 36 / 49 °F
Wind: 1 mph from Southwest

Location: Geneva Cointrin Airport

Current Time: Oct 14, 2015 at 1:11:32 AM

Latest Report: Oct 14, 2015 at 12:20 AM

Visibility: N/A

Pressure: 30.01 "Hg

Humidity: 57%

Dew point: 32 °F

Location of MeyrinLocation

Historic Weather in Meyrin — Graph


Meyrin temperature yesterday

Maximum temperature yesterday: 59 °F (at 1:20 PM)
Minimum temperature yesterday: 46 °F (at 11:20 PM)
Average temperature yesterday: 53 °F

Past Weeks' High & Low Weather Summary

High64 °F (Oct 4, 2:50 PM)100% (Oct 6, 1:50 AM)30.33 "Hg (Oct 6, 1:50 AM)
Low41 °F (Sep 30, 4:50 AM)46% (Oct 4, 3:50 PM)29.77 "Hg (Oct 6, 7:50 AM)
Average54 °F78%30.04 "Hg
* Reported Sep 28 11:20 PM — Oct 13 11:20 PM, Meyrin, Weather by CustomWeather, © 2015

Note: Actual official high and low records may vary slightly from our data, if they occured in-between our weather recording intervals... More about our weather records


Meyrin weather history for previous 24 hours

Time TempWeatherWind HumidityBarometerVisibility
11:20 PM
Tue, Oct 13
46 °FPassing clouds.5 mph62%30.04 "HgN/A
10:50 PM48 °FPassing clouds.3 mph58%30.01 "HgN/A
10:20 PM48 °FPassing clouds.3 mph54%30.01 "HgN/A
9:50 PM50 °FPassing clouds.3 mph50%30.01 "HgN/A
9:20 PM50 °FPassing clouds.3 mph50%30.01 "HgN/A
8:50 PM50 °FPassing clouds.3 mph54%30.01 "HgN/A
8:20 PM52 °FPassing clouds.3 mph58%30.01 "HgN/A
7:50 PM52 °FPartly sunny.5 mph58%29.98 "HgN/A
7:20 PM52 °FPartly sunny.3 mph58%29.98 "HgN/A
6:50 PM54 °FPartly sunny.3 mph58%29.95 "HgN/A
6:20 PM54 °FPartly sunny.3 mph58%29.95 "HgN/A
5:50 PM54 °FPartly sunny.5 mph63%29.92 "HgN/A
5:20 PM55 °FPartly sunny.6 mph59%29.95 "HgN/A
4:50 PM55 °FPartly sunny.2 mph67%29.92 "HgN/A
4:20 PM57 °FPartly sunny.9 mph63%29.92 "HgN/A
3:50 PM57 °FBroken clouds.8 mph67%29.92 "HgN/A
3:20 PM57 °FBroken clouds.7 mph67%29.92 "HgN/A
2:50 PM57 °FBroken clouds.8 mph72%29.92 "HgN/A
2:20 PM57 °FBroken clouds.12 mph72%29.92 "HgN/A
1:50 PM57 °FBroken clouds.13 mph72%29.92 "HgN/A
1:20 PM59 °FBroken clouds.10 mph68%29.92 "HgN/A
12:50 PM57 °FPartly sunny.7 mph77%29.92 "HgN/A
12:20 PM57 °FPartly sunny.7 mph77%29.92 "HgN/A
11:50 AM55 °FBroken clouds.9 mph82%29.92 "HgN/A
11:20 AM55 °FBroken clouds.6 mph82%29.92 "HgN/A
10:50 AM55 °FBroken clouds.2 mph82%29.92 "HgN/A
10:20 AM54 °FBroken clouds.3 mph82%29.92 "HgN/A
9:50 AM54 °FPartly sunny.1 mph82%29.92 "HgN/A
9:20 AM54 °FBroken clouds.2 mph82%29.92 "HgN/A
8:50 AM52 °FBroken clouds.2 mph88%29.92 "HgN/A
8:20 AM52 °FPartly cloudy.2 mph88%29.92 "HgN/A
7:50 AM52 °FMostly cloudy.1 mph88%29.92 "HgN/A
7:20 AM52 °FPartly cloudy.2 mph88%29.92 "HgN/A
6:50 AM50 °FPartly cloudy.3 mph94%29.92 "HgN/A
6:20 AM50 °FPassing clouds.2 mph94%29.92 "HgN/A
5:20 AM50 °FPassing clouds.2 mph94%29.92 "Hg6 mi
4:50 AM50 °FPassing clouds.3 mph94%29.92 "HgN/A
4:20 AM50 °FPassing clouds.2 mph94%29.92 "Hg6 mi
3:50 AM50 °FPassing clouds.3 mph94%29.92 "Hg6 mi
2:50 AM50 °FPassing clouds.1 mph94%29.95 "Hg6 mi
2:20 AM50 °FClear.2 mph88%29.95 "Hg6 mi
1:50 AM50 °FClear.2 mph94%29.95 "Hg6 mi
1:20 AM50 °FClear.2 mph94%29.95 "Hg6 mi
Weather by CustomWeather, © 2015

See weather overviewHow to use our weather pages